Year,Month,Day,Hour,Minute,Value (Times are PST for temperature in C)
2018,12,05,00,01,-1.30
2018,12,05,00,02,-1.30
2018,12,05,00,04,-1.30
2018,12,05,00,05,-1.30
2018,12,05,00,06,-1.30
2018,12,05,00,08,-1.30
2018,12,05,00,09,-1.30
2018,12,05,00,10,-1.30
2018,12,05,00,11,-1.30
2018,12,05,00,14,-1.30
2018,12,05,00,15,-1.30
2018,12,05,00,18,-1.30
2018,12,05,00,19,-1.30
2018,12,05,00,20,-1.30
2018,12,05,00,21,-1.30
2018,12,05,00,22,-1.20
2018,12,05,00,24,-1.20
2018,12,05,00,26,-1.20
2018,12,05,00,27,-1.20
2018,12,05,00,28,-1.20
2018,12,05,00,29,-1.20
2018,12,05,00,31,-1.20
2018,12,05,00,32,-1.20
2018,12,05,00,34,-1.20
2018,12,05,00,35,-1.20
2018,12,05,00,36,-1.20
2018,12,05,00,39,-1.20
2018,12,05,00,41,-1.20
2018,12,05,00,42,-1.20
2018,12,05,00,43,-1.20
2018,12,05,00,44,-1.20
2018,12,05,00,45,-1.20
2018,12,05,00,46,-1.20
2018,12,05,00,47,-1.20
2018,12,05,00,48,-1.10
2018,12,05,00,49,-1.20
2018,12,05,00,50,-1.10
2018,12,05,00,51,-1.10
2018,12,05,00,52,-1.10
2018,12,05,00,54,-1.10
2018,12,05,00,55,-1.10
2018,12,05,00,56,-1.10
2018,12,05,00,57,-1.10
2018,12,05,00,58,-1.10
2018,12,05,00,59,-1.10
2018,12,05,01,00,-1.10
2018,12,05,01,01,-1.10
2018,12,05,01,03,-1.10
2018,12,05,01,06,-1.10
2018,12,05,01,07,-1.10
2018,12,05,01,08,-1.10
2018,12,05,01,10,-1.10
2018,12,05,01,11,-1.10
2018,12,05,01,12,-1.10
2018,12,05,01,13,-1.10
2018,12,05,01,14,-1.10
2018,12,05,01,16,-1.10
2018,12,05,01,18,-1.10
2018,12,05,01,19,-1.10
2018,12,05,01,20,-1.10
2018,12,05,01,21,-1.10
2018,12,05,01,22,-1.10
2018,12,05,01,25,-1.10
2018,12,05,01,26,-1.10
2018,12,05,01,27,-1.10
2018,12,05,01,28,-1.10
2018,12,05,01,29,-1.20
2018,12,05,01,31,-1.10
2018,12,05,01,32,-1.20
2018,12,05,01,33,-1.10
2018,12,05,01,34,-1.10
2018,12,05,01,35,-1.10
2018,12,05,01,37,-1.10
2018,12,05,01,38,-1.10
2018,12,05,01,40,-1.10
2018,12,05,01,41,-1.10
2018,12,05,01,42,-1.10
2018,12,05,01,44,-1.10
2018,12,05,01,45,-1.10
2018,12,05,01,46,-1.10
2018,12,05,01,47,-1.10
2018,12,05,01,48,-1.10
2018,12,05,01,49,-1.10
2018,12,05,01,51,-1.10
2018,12,05,01,52,-1.10
2018,12,05,01,53,-1.10
2018,12,05,01,54,-1.10
2018,12,05,01,56,-1.10
2018,12,05,01,57,-1.10
2018,12,05,01,59,-1.10
2018,12,05,02,00,-1.10
2018,12,05,02,01,-1.10
2018,12,05,02,02,-1.10
2018,12,05,02,03,-1.10
2018,12,05,02,05,-1.10
2018,12,05,02,06,-1.10
2018,12,05,02,07,-1.10
2018,12,05,02,09,-1.10
2018,12,05,02,10,-1.10
2018,12,05,02,12,-1.10
2018,12,05,02,13,-1.10
2018,12,05,02,15,-1.10
2018,12,05,02,16,-1.10
2018,12,05,02,17,-1.10
2018,12,05,02,19,-1.10
2018,12,05,02,20,-1.10
2018,12,05,02,21,-1.10
2018,12,05,02,22,-1.10
2018,12,05,02,23,-1.10
2018,12,05,02,25,-1.10
2018,12,05,02,27,-1.10
2018,12,05,02,28,-1.10
2018,12,05,02,30,-1.10
2018,12,05,02,31,-1.10
2018,12,05,02,32,-1.10
2018,12,05,02,33,-1.20
2018,12,05,02,34,-1.20
2018,12,05,02,35,-1.20
2018,12,05,02,36,-1.20
2018,12,05,02,37,-1.20
2018,12,05,02,38,-1.10
2018,12,05,02,39,-1.20
2018,12,05,02,41,-1.20
2018,12,05,02,42,-1.20
2018,12,05,02,44,-1.20
2018,12,05,02,45,-1.20
2018,12,05,02,46,-1.20
2018,12,05,02,47,-1.20
2018,12,05,02,48,-1.20
2018,12,05,02,49,-1.20
2018,12,05,02,50,-1.20
2018,12,05,02,51,-1.20
2018,12,05,02,52,-1.20
2018,12,05,02,53,-1.20
2018,12,05,02,55,-1.20
2018,12,05,02,56,-1.20
2018,12,05,02,58,-1.20
2018,12,05,03,00,-1.20
2018,12,05,03,02,-1.20
2018,12,05,03,03,-1.20
2018,12,05,03,04,-1.20
2018,12,05,03,05,-1.20
2018,12,05,03,06,-1.20
2018,12,05,03,07,-1.20
2018,12,05,03,08,-1.20
2018,12,05,03,09,-1.20
2018,12,05,03,11,-1.20
2018,12,05,03,12,-1.20
2018,12,05,03,14,-1.20
2018,12,05,03,15,-1.10
2018,12,05,03,16,-1.10
2018,12,05,03,17,-1.20
2018,12,05,03,19,-1.20
2018,12,05,03,20,-1.20
2018,12,05,03,22,-1.20
2018,12,05,03,23,-1.20
2018,12,05,03,24,-1.20
2018,12,05,03,25,-1.20
2018,12,05,03,27,-1.20
2018,12,05,03,28,-1.20
2018,12,05,03,29,-1.20
2018,12,05,03,30,-1.20
2018,12,05,03,31,-1.20
2018,12,05,03,32,-1.20
2018,12,05,03,34,-1.20
2018,12,05,03,35,-1.20
2018,12,05,03,37,-1.20
2018,12,05,03,38,-1.20
2018,12,05,03,40,-1.20
2018,12,05,03,41,-1.20
2018,12,05,03,43,-1.20
2018,12,05,03,44,-1.20
2018,12,05,03,46,-1.20
2018,12,05,03,47,-1.20
2018,12,05,03,48,-1.20
2018,12,05,03,49,-1.20
2018,12,05,03,50,-1.20
2018,12,05,03,51,-1.20
2018,12,05,03,52,-1.20
2018,12,05,03,53,-1.20
2018,12,05,03,55,-1.20
2018,12,05,03,56,-1.10
2018,12,05,03,57,-1.10
2018,12,05,03,59,-1.10
2018,12,05,04,00,-1.10
2018,12,05,04,01,-1.10
2018,12,05,04,02,-1.10
2018,12,05,04,03,-1.10
2018,12,05,04,04,-1.10
2018,12,05,04,05,-1.10
2018,12,05,04,07,-1.10
2018,12,05,04,09,-1.10
2018,12,05,04,10,-1.10
2018,12,05,04,13,-1.10
2018,12,05,04,14,-1.10
2018,12,05,04,15,-1.10
2018,12,05,04,16,-1.10
2018,12,05,04,17,-1.10
2018,12,05,04,18,-1.10
2018,12,05,04,19,-1.10
2018,12,05,04,20,-1.10
2018,12,05,04,21,-1.10
2018,12,05,04,22,-1.10
2018,12,05,04,24,-1.10
2018,12,05,04,25,-1.10
2018,12,05,04,26,-1.10
2018,12,05,04,29,-1.10
2018,12,05,04,30,-1.10
2018,12,05,04,31,-1.10
2018,12,05,04,33,-1.10
2018,12,05,04,35,-1.10
2018,12,05,04,36,-1.10
2018,12,05,04,37,-1.10
2018,12,05,04,38,-1.10
2018,12,05,04,40,-1.10
2018,12,05,04,42,-1.10
2018,12,05,04,43,-1.10
2018,12,05,04,44,-1.10
2018,12,05,04,46,-1.10
2018,12,05,04,47,-1.10
2018,12,05,04,48,-1.10
2018,12,05,04,49,-1.10
2018,12,05,04,50,-1.20
2018,12,05,04,51,-1.10
2018,12,05,04,52,-1.20
2018,12,05,04,53,-1.20
2018,12,05,04,54,-1.20
2018,12,05,04,55,-1.20
2018,12,05,04,56,-1.20
2018,12,05,04,57,-1.20
2018,12,05,04,58,-1.20
2018,12,05,04,59,-1.20
2018,12,05,05,01,-1.20
2018,12,05,05,02,-1.20
2018,12,05,05,03,-1.20
2018,12,05,05,04,-1.20
2018,12,05,05,05,-1.20
2018,12,05,05,07,-1.30
2018,12,05,05,08,-1.30
2018,12,05,05,09,-1.30
2018,12,05,05,11,-1.30
2018,12,05,05,12,-1.30
2018,12,05,05,15,-1.30
2018,12,05,05,16,-1.30
2018,12,05,05,17,-1.30
2018,12,05,05,19,-1.30
2018,12,05,05,20,-1.30
2018,12,05,05,22,-1.30
2018,12,05,05,23,-1.30
2018,12,05,05,24,-1.30
2018,12,05,05,26,-1.30
2018,12,05,05,27,-1.30
2018,12,05,05,28,-1.30
2018,12,05,05,29,-1.30
2018,12,05,05,31,-1.30
2018,12,05,05,32,-1.30
2018,12,05,05,33,-1.30
2018,12,05,05,34,-1.30
2018,12,05,05,35,-1.30
2018,12,05,05,37,-1.30
2018,12,05,05,38,-1.30
2018,12,05,05,39,-1.30
2018,12,05,05,41,-1.30
2018,12,05,05,42,-1.30
2018,12,05,05,44,-1.30
2018,12,05,05,46,-1.30
2018,12,05,05,47,-1.30
2018,12,05,05,49,-1.30
2018,12,05,05,51,-1.30
2018,12,05,05,52,-1.30
2018,12,05,05,54,-1.30
2018,12,05,05,55,-1.40
2018,12,05,05,57,-1.40
2018,12,05,05,59,-1.40
2018,12,05,06,00,-1.40
2018,12,05,06,01,-1.40
2018,12,05,06,02,-1.40
2018,12,05,06,04,-1.40
2018,12,05,06,05,-1.40
2018,12,05,06,07,-1.40
2018,12,05,06,08,-1.40
2018,12,05,06,10,-1.40
2018,12,05,06,11,-1.40
2018,12,05,06,13,-1.40
2018,12,05,06,15,-1.40
2018,12,05,06,16,-1.40
2018,12,05,06,17,-1.40
2018,12,05,06,20,-1.40
2018,12,05,06,21,-1.40
2018,12,05,06,22,-1.40
2018,12,05,06,23,-1.40
2018,12,05,06,25,-1.40
2018,12,05,06,26,-1.40
2018,12,05,06,27,-1.40
2018,12,05,06,28,-1.40
2018,12,05,06,29,-1.40
2018,12,05,06,30,-1.40
2018,12,05,06,31,-1.40
2018,12,05,06,32,-1.40
2018,12,05,06,33,-1.40
2018,12,05,06,34,-1.40
2018,12,05,06,35,-1.40
2018,12,05,06,36,-1.40
2018,12,05,06,38,-1.40
2018,12,05,06,40,-1.40
2018,12,05,06,42,-1.40
2018,12,05,06,43,-1.50
2018,12,05,06,44,-1.50
2018,12,05,06,45,-1.50
2018,12,05,06,48,-1.50
2018,12,05,06,49,-1.50
2018,12,05,06,51,-1.50
2018,12,05,06,52,-1.50
2018,12,05,06,54,-1.50
2018,12,05,06,55,-1.50
2018,12,05,06,57,-1.50
2018,12,05,06,58,-1.50
2018,12,05,06,59,-1.60
2018,12,05,07,00,-1.60
2018,12,05,07,02,-1.60
2018,12,05,07,03,-1.60
2018,12,05,07,06,-1.70
2018,12,05,07,07,-1.70
2018,12,05,07,09,-1.70
2018,12,05,07,10,-1.70
2018,12,05,07,11,-1.70
2018,12,05,07,12,-1.70
2018,12,05,07,13,-1.70
2018,12,05,07,15,-1.70
2018,12,05,07,16,-1.70
2018,12,05,07,17,-1.70
2018,12,05,07,18,-1.70
2018,12,05,07,19,-1.70
2018,12,05,07,21,-1.70
2018,12,05,07,22,-1.70
2018,12,05,07,23,-1.70
2018,12,05,07,24,-1.70
2018,12,05,07,25,-1.70
2018,12,05,07,26,-1.70
2018,12,05,07,27,-1.70
2018,12,05,07,29,-1.70
2018,12,05,07,30,-1.70
2018,12,05,07,32,-1.80
2018,12,05,07,33,-1.80
2018,12,05,07,35,-1.70
2018,12,05,07,36,-1.80
2018,12,05,07,37,-1.70
2018,12,05,07,39,-1.70
2018,12,05,07,41,-1.80
2018,12,05,07,42,-1.80
2018,12,05,07,43,-1.80
2018,12,05,07,46,-1.80
2018,12,05,07,47,-1.80
2018,12,05,07,49,-1.80
2018,12,05,07,51,-1.80
2018,12,05,07,53,-1.80
2018,12,05,07,54,-1.80
2018,12,05,07,56,-1.80
2018,12,05,07,58,-1.80
2018,12,05,07,59,-1.80
2018,12,05,08,01,-1.80
2018,12,05,08,03,-1.80
2018,12,05,08,04,-1.80
2018,12,05,08,05,-1.80
2018,12,05,08,07,-1.80
2018,12,05,08,08,-1.80
2018,12,05,08,09,-1.80
2018,12,05,08,10,-1.80
2018,12,05,08,12,-1.80
2018,12,05,08,13,-1.80
2018,12,05,08,14,-1.80
2018,12,05,08,15,-1.80
2018,12,05,08,16,-1.80
2018,12,05,08,17,-1.80
2018,12,05,08,18,-1.70
2018,12,05,08,20,-1.70
2018,12,05,08,21,-1.70
2018,12,05,08,23,-1.70
2018,12,05,08,24,-1.70
2018,12,05,08,27,-1.70
2018,12,05,08,29,-1.70
2018,12,05,08,31,-1.70
2018,12,05,08,33,-1.70
2018,12,05,08,34,-1.70
2018,12,05,08,35,-1.70
2018,12,05,08,37,-1.70
2018,12,05,08,39,-1.70
2018,12,05,08,40,-1.70
2018,12,05,08,43,-1.70
2018,12,05,08,44,-1.70
2018,12,05,08,45,-1.70
2018,12,05,08,46,-1.70
2018,12,05,08,48,-1.80
2018,12,05,08,49,-1.80
2018,12,05,08,51,-1.80
2018,12,05,08,53,-1.80
2018,12,05,08,55,-1.80
2018,12,05,08,56,-1.80
2018,12,05,08,57,-1.80
2018,12,05,08,58,-1.80
2018,12,05,08,59,-1.80
2018,12,05,09,02,-1.80
2018,12,05,09,04,-1.80
2018,12,05,09,05,-1.80
2018,12,05,09,06,-1.80
2018,12,05,09,07,-1.80
2018,12,05,09,08,-1.80
2018,12,05,09,09,-1.80
2018,12,05,09,10,-1.80
2018,12,05,09,11,-1.80
2018,12,05,09,12,-1.80
2018,12,05,09,13,-1.80
2018,12,05,09,14,-1.80
2018,12,05,09,16,-1.80
2018,12,05,09,17,-1.80
2018,12,05,09,19,-1.80
2018,12,05,09,20,-1.80
2018,12,05,09,21,-1.80
2018,12,05,09,23,-1.80
2018,12,05,09,24,-1.80
2018,12,05,09,26,-1.80
2018,12,05,09,27,-1.80
2018,12,05,09,28,-1.80
2018,12,05,09,29,-1.80
2018,12,05,09,32,-1.80
2018,12,05,09,33,-1.80
2018,12,05,09,34,-1.80
2018,12,05,09,35,-1.80
2018,12,05,09,37,-1.70
2018,12,05,09,38,-1.70
2018,12,05,09,39,-1.70
2018,12,05,09,41,-1.70
2018,12,05,09,42,-1.70
2018,12,05,09,43,-1.70
2018,12,05,09,44,-1.70
2018,12,05,09,45,-1.70
2018,12,05,09,47,-1.70
2018,12,05,09,48,-1.80
2018,12,05,09,49,-1.80
2018,12,05,09,50,-1.80
2018,12,05,09,52,-1.80
2018,12,05,09,53,-1.80
2018,12,05,09,55,-1.80
2018,12,05,09,56,-1.70
2018,12,05,09,58,-1.70
2018,12,05,09,59,-1.70
2018,12,05,10,01,-1.70
2018,12,05,10,02,-1.70
2018,12,05,10,03,-1.70
2018,12,05,10,05,-1.70
2018,12,05,10,06,-1.70
2018,12,05,10,08,-1.70
2018,12,05,10,09,-1.70
2018,12,05,10,11,-1.70
2018,12,05,10,12,-1.70
2018,12,05,10,14,-1.70
2018,12,05,10,15,-1.70
2018,12,05,10,17,-1.70
2018,12,05,10,18,-1.70
2018,12,05,10,19,-1.70
2018,12,05,10,20,-1.70
2018,12,05,10,21,-1.70
2018,12,05,10,23,-1.70
2018,12,05,10,25,-1.60
2018,12,05,10,26,-1.60
2018,12,05,10,28,-1.60
2018,12,05,10,30,-1.60
2018,12,05,10,31,-1.60
2018,12,05,10,32,-1.60
2018,12,05,10,33,-1.60
2018,12,05,10,36,-1.60
2018,12,05,10,37,-1.60
2018,12,05,10,38,-1.60
2018,12,05,10,39,-1.60
2018,12,05,10,42,-1.60
2018,12,05,10,44,-1.60
2018,12,05,10,45,-1.60
2018,12,05,10,47,-1.50
2018,12,05,10,48,-1.50
2018,12,05,10,50,-1.40
2018,12,05,10,51,-1.40
2018,12,05,10,52,-1.40
2018,12,05,10,53,-1.40
2018,12,05,10,55,-1.30
2018,12,05,10,57,-1.30
2018,12,05,10,58,-1.30
2018,12,05,10,59,-1.30
2018,12,05,11,00,-1.30
2018,12,05,11,01,-1.30
2018,12,05,11,02,-1.30
2018,12,05,11,03,-1.30
2018,12,05,11,04,-1.30
2018,12,05,11,06,-1.30
2018,12,05,11,07,-1.30
2018,12,05,11,08,-1.40
2018,12,05,11,10,-1.40
2018,12,05,11,11,-1.40
2018,12,05,11,12,-1.40
2018,12,05,11,13,-1.40
2018,12,05,11,14,-1.40
2018,12,05,11,15,-1.40
2018,12,05,11,17,-1.40
2018,12,05,11,19,-1.50
2018,12,05,11,21,-1.50
2018,12,05,11,22,-1.60
2018,12,05,11,23,-1.50
2018,12,05,11,24,-1.50
2018,12,05,11,25,-1.50
2018,12,05,11,26,-1.50
2018,12,05,11,27,-1.50
2018,12,05,11,28,-1.50
2018,12,05,11,29,-1.50
2018,12,05,11,30,-1.50
2018,12,05,11,31,-1.50
2018,12,05,11,32,-1.50
2018,12,05,11,34,-1.40
2018,12,05,11,35,-1.50
2018,12,05,11,36,-1.40
2018,12,05,11,37,-1.40
2018,12,05,11,38,-1.40
2018,12,05,11,40,-1.40
2018,12,05,11,41,-1.40
2018,12,05,11,43,-1.40
2018,12,05,11,44,-1.40
2018,12,05,11,45,-1.40
2018,12,05,11,46,-1.30
2018,12,05,11,47,-1.30
2018,12,05,11,49,-1.30
2018,12,05,11,50,-1.30
2018,12,05,11,51,-1.30
2018,12,05,11,52,-1.30
2018,12,05,11,53,-1.30
2018,12,05,11,54,-1.30
2018,12,05,11,55,-1.30
2018,12,05,11,56,-1.30
2018,12,05,11,57,-1.30
2018,12,05,11,59,-1.30
2018,12,05,12,00,-1.30
2018,12,05,12,02,-1.30
2018,12,05,12,03,-1.30
2018,12,05,12,04,-1.30
2018,12,05,12,06,-1.30
2018,12,05,12,07,-1.30
2018,12,05,12,09,-1.20
2018,12,05,12,10,-1.20
2018,12,05,12,11,-1.20
2018,12,05,12,13,-1.20
2018,12,05,12,14,-1.20
2018,12,05,12,15,-1.10
2018,12,05,12,16,-1.10
2018,12,05,12,17,-1.10
2018,12,05,12,18,-1.10
2018,12,05,12,21,-1.10
2018,12,05,12,22,-1.10
2018,12,05,12,23,-1.10
2018,12,05,12,25,-1.10
2018,12,05,12,26,-1.00
2018,12,05,12,28,-1.00
2018,12,05,12,29,-1.00
2018,12,05,12,31,-1.00
2018,12,05,12,33,-1.00
2018,12,05,12,34,-1.00
2018,12,05,12,36,-0.90
2018,12,05,12,37,-0.90
2018,12,05,12,38,-0.90
2018,12,05,12,40,-0.90
2018,12,05,12,41,-0.90
2018,12,05,12,42,-0.90
2018,12,05,12,44,-0.80
2018,12,05,12,45,-0.80
2018,12,05,12,47,-0.80
2018,12,05,12,48,-0.80
2018,12,05,12,50,-0.70
2018,12,05,12,51,-0.70
2018,12,05,12,52,-0.70
2018,12,05,12,53,-0.70
2018,12,05,12,54,-0.80
2018,12,05,12,55,-0.80
2018,12,05,12,56,-0.80
2018,12,05,12,57,-0.80
2018,12,05,12,58,-0.80
2018,12,05,12,59,-0.80
2018,12,05,13,00,-0.80
2018,12,05,13,01,-0.90
2018,12,05,13,02,-0.90
2018,12,05,13,03,-0.90
2018,12,05,13,04,-0.90
2018,12,05,13,06,-0.90
2018,12,05,13,07,-1.00
2018,12,05,13,08,-1.00
2018,12,05,13,09,-1.00
2018,12,05,13,11,-1.00
2018,12,05,13,12,-1.00
2018,12,05,13,13,-1.00
2018,12,05,13,15,-1.00
2018,12,05,13,16,-0.90
2018,12,05,13,18,-0.90
2018,12,05,13,19,-0.90
2018,12,05,13,20,-0.90
2018,12,05,13,21,-0.90
2018,12,05,13,22,-0.80
2018,12,05,13,23,-0.80
2018,12,05,13,25,-0.70
2018,12,05,13,26,-0.70
2018,12,05,13,27,-0.70
2018,12,05,13,28,-0.70
2018,12,05,13,30,-0.70
2018,12,05,13,31,-0.60
2018,12,05,13,33,-0.60
2018,12,05,13,35,-0.60
2018,12,05,13,36,-0.70
2018,12,05,13,37,-0.70
2018,12,05,13,38,-0.70
2018,12,05,13,39,-0.80
2018,12,05,13,40,-0.80
2018,12,05,13,41,-0.90
2018,12,05,13,42,-0.90
2018,12,05,13,43,-0.90
2018,12,05,13,44,-0.90
2018,12,05,13,45,-0.90
2018,12,05,13,47,-0.90
2018,12,05,13,48,-0.90
2018,12,05,13,49,-0.90
2018,12,05,13,50,-0.90
2018,12,05,13,51,-0.90
2018,12,05,13,52,-0.90
2018,12,05,13,53,-0.90
2018,12,05,13,55,-0.90
2018,12,05,13,57,-0.90
2018,12,05,13,58,-0.90
2018,12,05,13,59,-0.90
2018,12,05,14,01,-0.90
2018,12,05,14,03,-0.90
2018,12,05,14,05,-0.90
2018,12,05,14,06,-0.90
2018,12,05,14,07,-0.90
2018,12,05,14,09,-0.90
2018,12,05,14,10,-0.90
2018,12,05,14,11,-0.80
2018,12,05,14,12,-0.80
2018,12,05,14,13,-0.80
2018,12,05,14,15,-0.80
2018,12,05,14,16,-0.70
2018,12,05,14,17,-0.70
2018,12,05,14,18,-0.70
2018,12,05,14,19,-0.70
2018,12,05,14,20,-0.70
2018,12,05,14,21,-0.70
2018,12,05,14,22,-0.70
2018,12,05,14,23,-0.70
2018,12,05,14,25,-0.70
2018,12,05,14,26,-0.70
2018,12,05,14,27,-0.70
2018,12,05,14,28,-0.70
2018,12,05,14,29,-0.70
2018,12,05,14,30,-0.70
2018,12,05,14,31,-0.70
2018,12,05,14,32,-0.70
2018,12,05,14,33,-0.70
2018,12,05,14,35,-0.70
2018,12,05,14,36,-0.70
2018,12,05,14,38,-0.70
2018,12,05,14,39,-0.70
2018,12,05,14,40,-0.70
2018,12,05,14,41,-0.70
2018,12,05,14,42,-0.70
2018,12,05,14,44,-0.70
2018,12,05,14,45,-0.70
2018,12,05,14,46,-0.70
2018,12,05,14,48,-0.70
2018,12,05,14,49,-0.70
2018,12,05,14,51,-0.70
2018,12,05,14,52,-0.70
2018,12,05,14,53,-0.70
2018,12,05,14,55,-0.70
2018,12,05,14,56,-0.70
2018,12,05,14,58,-0.70
2018,12,05,14,59,-0.70
2018,12,05,15,00,-0.70
2018,12,05,15,01,-0.70
2018,12,05,15,02,-0.70
2018,12,05,15,03,-0.70
2018,12,05,15,04,-0.70
2018,12,05,15,05,-0.70
2018,12,05,15,06,-0.70
2018,12,05,15,07,-0.70
2018,12,05,15,08,-0.70
2018,12,05,15,09,-0.70
2018,12,05,15,10,-0.70
2018,12,05,15,12,-0.70
2018,12,05,15,13,-0.70
2018,12,05,15,14,-0.70
2018,12,05,15,15,-0.70
2018,12,05,15,16,-0.70
2018,12,05,15,18,-0.70
2018,12,05,15,19,-0.70
2018,12,05,15,20,-0.70
2018,12,05,15,22,-0.70
2018,12,05,15,23,-0.70
2018,12,05,15,25,-0.70
2018,12,05,15,26,-0.70
2018,12,05,15,27,-0.70
2018,12,05,15,28,-0.70
2018,12,05,15,29,-0.70
2018,12,05,15,30,-0.70
2018,12,05,15,31,-0.70
2018,12,05,15,32,-0.70
2018,12,05,15,34,-0.80
2018,12,05,15,36,-0.70
2018,12,05,15,38,-0.80
2018,12,05,15,39,-0.80
2018,12,05,15,40,-0.80
2018,12,05,15,41,-0.80
2018,12,05,15,42,-0.80
2018,12,05,15,44,-0.80
2018,12,05,15,45,-0.80
2018,12,05,15,46,-0.80
2018,12,05,15,47,-0.80
2018,12,05,15,48,-0.80
2018,12,05,15,49,-0.80
2018,12,05,15,50,-0.90
2018,12,05,15,51,-0.90
2018,12,05,15,52,-0.90
2018,12,05,15,54,-0.90
2018,12,05,15,55,-0.90
2018,12,05,15,56,-0.90
2018,12,05,15,57,-0.90
2018,12,05,15,58,-0.90
2018,12,05,16,00,-0.90
2018,12,05,16,02,-1.00
2018,12,05,16,03,-1.00
2018,12,05,16,05,-1.00
2018,12,05,16,06,-1.00
2018,12,05,16,07,-1.00
2018,12,05,16,09,-1.10
2018,12,05,16,10,-1.10
2018,12,05,16,12,-1.10
2018,12,05,16,13,-1.10
2018,12,05,16,14,-1.10
2018,12,05,16,15,-1.10
2018,12,05,16,17,-1.10
2018,12,05,16,18,-1.10
2018,12,05,16,20,-1.10
2018,12,05,16,22,-1.10
2018,12,05,16,24,-1.10
2018,12,05,16,25,-1.10
2018,12,05,16,26,-1.10
2018,12,05,16,27,-1.10
2018,12,05,16,29,-1.10
2018,12,05,16,30,-1.10
2018,12,05,16,31,-1.10
2018,12,05,16,33,-1.10
2018,12,05,16,35,-1.10
2018,12,05,16,36,-1.10
2018,12,05,16,37,-1.10
2018,12,05,16,39,-1.10
2018,12,05,16,41,-1.10
2018,12,05,16,42,-1.10
2018,12,05,16,44,-1.10
2018,12,05,16,45,-1.10
2018,12,05,16,46,-1.10
2018,12,05,16,48,-1.10
2018,12,05,16,49,-1.10
2018,12,05,16,50,-1.10
2018,12,05,16,52,-1.10
2018,12,05,16,53,-1.10
2018,12,05,16,54,-1.10
2018,12,05,16,55,-1.10
2018,12,05,16,56,-1.10
2018,12,05,16,57,-1.20
2018,12,05,16,58,-1.20
2018,12,05,17,00,-1.20
2018,12,05,17,01,-1.20
2018,12,05,17,02,-1.20
2018,12,05,17,03,-1.20
2018,12,05,17,04,-1.20
2018,12,05,17,05,-1.20
2018,12,05,17,06,-1.20
2018,12,05,17,08,-1.20
2018,12,05,17,09,-1.20
2018,12,05,17,10,-1.20
2018,12,05,17,11,-1.20
2018,12,05,17,12,-1.20
2018,12,05,17,13,-1.20
2018,12,05,17,14,-1.20
2018,12,05,17,15,-1.20
2018,12,05,17,16,-1.30
2018,12,05,17,17,-1.30
2018,12,05,17,19,-1.30
2018,12,05,17,20,-1.30
2018,12,05,17,21,-1.30
2018,12,05,17,22,-1.30
2018,12,05,17,23,-1.30
2018,12,05,17,24,-1.30
2018,12,05,17,26,-1.30
2018,12,05,17,27,-1.30
2018,12,05,17,28,-1.30
2018,12,05,17,29,-1.40
2018,12,05,17,30,-1.40
2018,12,05,17,31,-1.40
2018,12,05,17,32,-1.40
2018,12,05,17,33,-1.40
2018,12,05,17,34,-1.40
2018,12,05,17,35,-1.40
2018,12,05,17,36,-1.40
2018,12,05,17,38,-1.40
2018,12,05,17,39,-1.40
2018,12,05,17,40,-1.40
2018,12,05,17,41,-1.40
2018,12,05,17,42,-1.40
2018,12,05,17,43,-1.40
2018,12,05,17,44,-1.30
2018,12,05,17,45,-1.30
2018,12,05,17,46,-1.30
2018,12,05,17,47,-1.40
2018,12,05,17,49,-1.30
2018,12,05,17,51,-1.30
2018,12,05,17,53,-1.30
2018,12,05,17,54,-1.30
2018,12,05,17,56,-1.30
2018,12,05,17,58,-1.30
2018,12,05,17,59,-1.40
2018,12,05,18,01,-1.40
2018,12,05,18,02,-1.40
2018,12,05,18,04,-1.40
2018,12,05,18,05,-1.40
2018,12,05,18,06,-1.40
2018,12,05,18,07,-1.40
2018,12,05,18,09,-1.40
2018,12,05,18,10,-1.40
2018,12,05,18,11,-1.40
2018,12,05,18,13,-1.40
2018,12,05,18,15,-1.40
2018,12,05,18,16,-1.40
2018,12,05,18,17,-1.40
2018,12,05,18,19,-1.40
2018,12,05,18,20,-1.50
2018,12,05,18,21,-1.50
2018,12,05,18,23,-1.50
2018,12,05,18,24,-1.50
2018,12,05,18,25,-1.50
2018,12,05,18,26,-1.50
2018,12,05,18,27,-1.50
2018,12,05,18,29,-1.50
2018,12,05,18,31,-1.50
2018,12,05,18,32,-1.50
2018,12,05,18,33,-1.50
2018,12,05,18,35,-1.50
2018,12,05,18,36,-1.50
2018,12,05,18,37,-1.50
2018,12,05,18,39,-1.50
2018,12,05,18,40,-1.50
2018,12,05,18,41,-1.50
2018,12,05,18,42,-1.50
2018,12,05,18,43,-1.50
2018,12,05,18,44,-1.50
2018,12,05,18,45,-1.50
2018,12,05,18,46,-1.50
2018,12,05,18,47,-1.50
